Aspen, USA 16 day weather forecast

Slopes altitude range 2425 m - 3415m

Number of lifts: 36 Pistes: 241km

In some cases the lift and piste totals shown are for the ski domain (e.g. Three Valleys) rather than individual resort (e.g. Courchevel)

Overview

The 16 day weather forecast is fully updated 4 times every day.

    • Sun 23 SEP 2018
    • Sun 23
    • 1C 1C
    • Mon 24 SEP 2018
    • Mon 24
    • 1C 3C
    • Tue 25 SEP 2018
    • Tue 25
    • -1C 0C
    • Wed 26 SEP 2018
    • Wed 26
    • -2C -1C
    • Thu 27 SEP 2018
    • Thu 27
    • -2C -2C
    • Fri 28 SEP 2018
    • Fri 28
    • -1C 0C
    • Sat 29 SEP 2018
    • Sat 29
    • 1C 1C
    • Sun 30 SEP 2018
    • Sun 30
    • 1C 2C
    • Mon 01 OCT 2018
    • Mon 01
    • 0C 4C
    • Tue 02 OCT 2018
    • Tue 02
    • 2C 4C
    • Wed 03 OCT 2018
    • Wed 03
    • 4C 8C
    • Thu 04 OCT 2018
    • Thu 04
    • 3C 10C
    • Fri 05 OCT 2018
    • Fri 05
    • 1C 10C
    • Sat 06 OCT 2018
    • Sat 06
    • 0C 12C
    • Sun 07 OCT 2018
    • Sun 07
    • 0C 12C
    • Mon 08 OCT 2018
    • Mon 08
    • 0C 13C

Date:

Time Type 0°C level Temp Chill Snow Cloud Speed Gust Dir Press
3:00 4532m 2°C 2_1 0cm 0% 1mph 2mph 1021mB
6:00 4479m 1°C 1_3 0cm 3% 3mph 3mph 1021mB
9:00 4429m 1°C 1_4 0cm 0% 4mph 5mph 1021mB
12:00 4340m 1°C 1_4 0cm 3% 4mph 5mph 1021mB
15:00 4318m 8°C 8_5 0cm 30% 5mph 6mph 1020mB
18:00 4391m 12°C 12_9 0cm 16% 9mph 11mph 1016mB
21:00 4552m 12°C 12_13 0cm 22% 13mph 16mph 1013mB
0:00 4523m 11°C 11_7 0cm 11% 7mph 12mph 1012mB
3:00 4534m 3°C 3_2 0cm 2% 2mph 3mph 1015mB
6:00 4437m 1°C 1_4 0cm 9% 4mph 5mph 1016mB
9:00 4266m 1°C 1_4 0cm 79% 4mph 5mph 1016mB
12:00 4018m 3°C 3_3 0cm 76% 3mph 4mph 1016mB
15:00 4071m 4°C 4_5 0cm 100% 5mph 6mph 1016mB
18:00 4115m 9°C 9_9 0cm 98% 9mph 15mph 1014mB
21:00 4175m 9°C 9_10 0cm 24% 10mph 15mph 1012mB
0:00 4197m 8°C 8_5 0cm 53% 5mph 9mph 1012mB
3:00 4230m 2°C 2_2 0cm 53% 2mph 2mph 1016mB
6:00 4122m 1°C 1_2 0cm 29% 2mph 3mph 1017mB
9:00 3330m 0°C 0_1 0cm 1% 1mph 2mph 1017mB
12:00 3256m 0°C 0_2 0cm 7% 2mph 2mph 1019mB
15:00 3931m 5°C 5_3 0cm 22% 3mph 3mph 1019mB
18:00 4149m 10°C 10_9 0cm 11% 9mph 15mph 1018mB
21:00 4311m 10°C 10_13 0cm 3% 13mph 15mph 1015mB
0:00 4268m 8°C 8_6 0cm 1% 6mph 8mph 1016mB
3:00 3281m 0°C 0_1 0cm 0% 1mph 2mph 1021mB
6:00 3145m -1°C -1_3 0cm 3% 3mph 4mph 1022mB
9:00 3055m -2°C -2_4 0cm 0% 4mph 5mph 1022mB
12:00 2980m -1°C -1_3 0cm 0% 3mph 4mph 1022mB
15:00 3746m 4°C 4_4 0cm 0% 4mph 5mph 1021mB
18:00 4040m 9°C 9_10 0cm 0% 10mph 12mph 1019mB
21:00 4266m 9°C 9_12 0cm 0% 12mph 13mph 1015mB
0:00 4258m 8°C 8_7 0cm 0% 7mph 10mph 1015mB
3:00 3242m -1°C -1_3 0cm 24% 3mph 4mph 1020mB
6:00 3107m -2°C -2_1 0cm 12% 1mph 3mph 1020mB
9:00 3062m -2°C -2_1 0cm 1% 1mph 3mph 1020mB
12:00 3016m -2°C -2_1 0cm 40% 1mph 2mph 1021mB
15:00 4032m 5°C 5_4 0cm 29% 4mph 5mph 1019mB
18:00 4227m 10°C 10_7 0cm 53% 7mph 10mph 1016mB
21:00 4494m 10°C 10_11 0cm 47% 11mph 15mph 1012mB
0:00 4456m 9°C 9_6 0cm 29% 6mph 7mph 1013mB
3:00 4488m 1°C 1_2 0cm 1% 2mph 3mph 1019mB
6:00 3778m 0°C 0_3 0cm 10% 3mph 3mph 1020mB
9:00 3248m -1°C -1_3 0cm 37% 3mph 3mph 1020mB
12:00 3224m 0°C 0_2 0cm 33% 2mph 3mph 1021mB
15:00 4508m 7°C 7_4 0cm 43% 4mph 4mph 1020mB
18:00 4472m 12°C 12_7 0cm 21% 7mph 12mph 1016mB
21:00 4678m 12°C 12_13 0cm 0% 13mph 17mph 1014mB
0:00 4632m 10°C 10_6 0cm 0% 6mph 7mph 1015mB
3:00 4657m 2°C 2_0 0cm 0% 0mph 2mph 1020mB
6:00 4680m 1°C 1_2 0cm 0% 2mph 3mph 1022mB
9:00 4691m 1°C 1_4 0cm 0% 4mph 5mph 1023mB
12:00 4699m 1°C 1_5 0cm 26% 5mph 6mph 1024mB
15:00 4696m 8°C 8_5 0cm 70% 5mph 6mph 1022mB
18:00 4654m 13°C 13_7 0cm 77% 7mph 10mph 1019mB
21:00 4757m 13°C 13_11 0cm 84% 11mph 14mph 1016mB
0:00 4806m 11°C 11_4 0cm 70% 4mph 5mph 1015mB
3:00 4861m 3°C 3_2 0cm 0% 2mph 3mph 1020mB
6:00 4787m 2°C 2_4 0cm 0% 4mph 5mph 1020mB
9:00 4673m 1°C 1_5 0cm 28% 5mph 6mph 1020mB
12:00 4553m 2°C 2_5 0cm 52% 5mph 6mph 1020mB
15:00 4496m 8°C 8_5 0cm 3% 5mph 6mph 1018mB
18:00 4476m 13°C 13_15 0cm 1% 15mph 24mph 1014mB
21:00 4630m 13°C 13_22 0cm 0% 22mph 30mph 1010mB
0:00 4562m 10°C 10_13 0cm 0% 13mph 27mph 1010mB
3:00 4475m 4°C 4_8 0cm 2% 8mph 14mph 1012mB
6:00 4251m 4°C 4_7 0cm 51% 7mph 31mph 1012mB
9:00 4005m 3°C 3_6 0cm 100% 6mph 26mph 1014mB
12:00 3744m 4°C 4_4 0cm 93% 4mph 6mph 1017mB
15:00 3703m 2°C 2_4 0cm 91% 4mph 5mph 1017mB
18:00 4129m 9°C 9_8 0cm 46% 8mph 15mph 1015mB
21:00 4359m 9°C 9_12 0cm 0% 12mph 19mph 1011mB
0:00 4327m 9°C 9_8 0cm 0% 8mph 16mph 1011mB
3:00 4288m 2°C 2_5 0cm 0% 5mph 6mph 1015mB
6:00 4273m 2°C 2_7 0cm 0% 7mph 8mph 1015mB
9:00 4190m 2°C 2_7 0cm 87% 7mph 17mph 1014mB
12:00 4160m 4°C 4_7 0cm 92% 7mph 29mph 1014mB
15:00 3920m 5°C 5_10 0cm 100% 10mph 27mph 1014mB
18:00 4160m 10°C 10_13 0cm 100% 13mph 25mph 1012mB
Morning 0.322917mm 0.0625 4224m 4°C 4_3 0cm 100% 3mph 4mph 1019mB
Afternoon 0.0572917mm 0 4052m 8°C 8_3 0cm 100% 3mph 4mph 1020mB
Morning 0.0260417mm 0 4458m 4°C 4_4 0cm 86% 4mph 5mph 1022mB
Afternoon 0.3125mm 1.875 4296m 10°C 10_6 0cm 77% 6mph 9mph 1019mB
Morning 0.572917mm 6.3125 3986m 4°C 4_3 0cm 26% 3mph 5mph 1021mB
Afternoon 0.28125mm 1.5625 3839m 10°C 10_6 0cm 31% 6mph 8mph 1017mB
Morning 0.0208333mm 1.75 3419m 1°C 1_2 14cm 41% 2mph 3mph 1019mB
Afternoon 0.00520833mm 0 3987m 12°C 12_5 0cm 0% 5mph 5mph 1016mB
Morning 0.0520833mm 0 3754m 1°C 1_2 0cm 7% 2mph 2mph 1018mB
Afternoon 0.078125mm 0 4047m 12°C 12_6 0cm 64% 6mph 11mph 1015mB
Morning 0.015625mm 0 4111m 2°C 2_3 0cm 89% 3mph 4mph 1018mB
Afternoon 0.0208333mm 0 4130m 13°C 13_6 0cm 0% 6mph 10mph 1013mB

16 day outlook at a glance

Forecast issued: 23/09/2018 05:13:29

Chat

Your comments and questions. In a resort? Let us know what it's like!


Characters left 250

For terms and conditions see Readers Comments on the Cookie and privacy policy page.